DW8356 Weather Reports


time (UTC)temp
F
wind
direction
speed
knots
gust
knots
rain 1hr
in
rain 24hr
in
rain mn
in
humidity
%
barometer
mb
20260506014019 73 38 2.6 7.0 0.00 0.00 0.00 68 1006.3
20260506013521 73 5 1.7 7.8 0.00 0.00 0.00 68 1006.6
20260506013037 73 10 3.5 7.8 0.00 0.00 0.00 67 1006.5
20260506012521 73 43 1.7 8.7 0.00 0.00 0.00 67 1006.5
20260506012024 73 344 2.6 8.7 0.00 0.00 0.00 67 1006.6
20260506011535 73 51 2.6 12.2 0.00 0.00 0.00 66 1006.4
20260506011021 73 29 4.3 12.2 0.00 0.00 0.00 66 1006.1
20260506010521 74 352 4.3 10.4 0.00 0.00 0.00 65 1006.2
20260506010049 74 15 3.5 10.4 0.00 0.00 0.00 65 1006.1
20260506005520 74 352 5.2 10.4 0.00 0.00 0.00 64 1005.5
20260506005021 75 317 4.3 9.6 0.00 0.00 0.00 64 1005.5
20260506004543 75 48 1.7 11.3 0.00 0.00 0.00 65 1006.0
20260506004021 75 32 2.6 11.3 0.00 0.00 0.00 64 1005.7
20260506003521 75 329 5.2 9.6 0.00 0.00 0.00 64 1005.8
20260506003038 76 327 3.5 9.6 0.00 0.00 0.00 64 1005.8
20260506002519 76 307 3.5 9.6 0.00 0.00 0.00 64 1005.7
20260506002021 77 321 3.5 9.6 0.00 0.00 0.00 63 1005.7
20260506001544 78 334 3.5 11.3 0.00 0.00 0.00 63 1005.7
20260506001021 78 287 4.3 11.3 0.00 0.00 0.00 62 1005.6
20260506000521 79 32 2.6 10.4 0.00 0.00 0.00 61 1005.3
20260506000037 79 326 3.5 10.4 0.00 0.00 0.00 60 1005.1
20260505235523 79 352 2.6 7.8 0.00 0.00 0.00 59 1005.1
20260505235025 80 12 2.6 11.3 0.00 0.00 0.00 60 1005.1
20260505234556 80 336 3.5 11.3 0.00 0.00 0.00 60 1005.1
20260505234021 81 324 3.5 13.0 0.00 0.00 0.00 58 1004.9
20260505233522 81 352 4.3 13.0 0.00 0.00 0.00 57 1005.0
20260505233039 82 5 5.2 14.8 0.00 0.00 0.00 56 1005.0
20260505232522 83 5 6.1 14.8 0.00 0.00 0.00 55 1004.7
20260505232022 84 299 4.3 8.7 0.00 0.00 0.00 52 1004.6
20260505231539 85 336 1.7 8.7 0.00 0.00 0.00 50 1004.7
20260505231021 85 331 4.3 9.6 0.00 0.00 0.00 49 1004.5
20260505230519 85 276 4.3 11.3 0.00 0.00 0.00 48 1004.4
20260505230038 86 325 3.5 11.3 0.00 0.00 0.00 47 1004.2
20260505225521 86 348 3.5 8.7 0.00 0.00 0.00 46 1004.1
20260505225022 87 66 4.3 11.3 0.00 0.00 0.00 46 1004.2
20260505224539 88 331 5.2 11.3 0.00 0.00 0.00 45 1004.1
20260505224021 89 43 0.9 3.5 0.00 0.00 0.00 50 1004.1
20260505223528 90 0 0.0 2.6 0.00 0.00 0.00 51 1003.9
20260505223040 89 0 0.9 2.6 0.00 0.00 0.00 50 1003.6
20260505222522 90 0 0.9 1.7 0.00 0.00 0.00 51 1003.5
20260505222022 90 161 0.0 3.5 0.00 0.00 0.00 52 1003.6
20260505221532 90 163 0.0 3.5 0.00 0.00 0.00 51 1003.4
20260505221027 90 207 0.9 3.5 0.00 0.00 0.00 51 1003.4
20260505220519 90 325 0.9 3.5 0.00 0.00 0.00 51 1003.6
20260505220036 90 302 0.0 2.6 0.00 0.00 0.00 51 1003.7
20260505215522 90 293 0.0 1.7 0.00 0.00 0.00 50 1003.8
20260505215021 90 0 0.0 1.7 0.00 0.00 0.00 51 1003.8
20260505214559 90 227 0.9 2.6 0.00 0.00 0.00 51 1003.9
20260505214022 90 244 0.9 3.5 0.00 0.00 0.00 50 1003.8
20260505213521 91 247 0.9 8.7 0.00 0.00 0.00 50 1003.8
20260505213042 91 135 2.6 8.7 0.00 0.00 0.00 50 1004.0
20260505212524 91 163 0.0 5.2 0.00 0.00 0.00 49 1004.0
20260505212021 90 214 0.9 5.2 0.00 0.00 0.00 52 1004.1
20260505211535 90 88 0.9 4.3 0.00 0.00 0.00 50 1004.0
20260505211024 91 165 0.9 4.3 0.00 0.00 0.00 51 1004.2
20260505210520 90 0 0.0 4.3 0.00 0.00 0.00 52 1004.2
20260505210040 91 211 0.9 4.3 0.00 0.00 0.00 53 1004.2
20260505205522 91 225 0.9 3.5 0.00 0.00 0.00 53 1004.2
20260505205022 90 202 0.9 3.5 0.00 0.00 0.00 54 1004.3
20260505204548 89 138 0.9 3.5 0.00 0.00 0.00 56 1004.3
20260505204022 91 210 0.9 4.3 0.00 0.00 0.00 54 1004.4
20260505203521 90 339 0.9 4.3 0.00 0.00 0.00 54 1004.6
20260505203046 89 334 0.9 7.8 0.00 0.00 0.00 57 1004.7
20260505202522 90 136 1.7 7.8 0.00 0.00 0.00 55 1004.6
20260505202022 89 179 0.9 6.1 0.00 0.00 0.00 57 1004.6
20260505201539 89 186 0.9 7.0 0.00 0.00 0.00 54 1004.7
20260505201021 90 216 0.9 7.0 0.00 0.00 0.00 53 1004.7
20260505200522 90 229 1.7 6.1 0.00 0.00 0.00 54 1004.5
20260505200046 89 199 0.9 3.5 0.00 0.00 0.00 55 1004.8
20260505195522 90 311 0.9 4.3 0.00 0.00 0.00 56 1004.8
20260505195022 89 242 0.9 4.3 0.00 0.00 0.00 57 1004.8
20260505194544 88 183 0.9 3.5 0.00 0.00 0.00 57 1004.8
20260505194023 88 265 0.9 4.3 0.00 0.00 0.00 57 1004.8
20260505193523 89 158 1.7 4.3 0.00 0.00 0.00 56 1004.9
20260505193042 88 225 0.9 3.5 0.00 0.00 0.00 60 1004.7
20260505192523 88 360 0.9 4.3 0.00 0.00 0.00 59 1004.8
20260505192023 87 148 0.9 4.3 0.00 0.00 0.00 59 1004.9
20260505191538 87 261 1.7 5.2 0.00 0.00 0.00 58 1004.9
20260505191023 87 182 0.9 5.2 0.00 0.00 0.00 61 1004.8
20260505190523 87 196 1.7 3.5 0.00 0.00 0.00 61 1004.9
20260505190039 86 203 0.9 6.1 0.00 0.00 0.00 61 1004.9
20260505185522 85 28 1.7 6.1 0.00 0.00 0.00 62 1004.9
20260505185021 85 229 0.9 6.1 0.00 0.00 0.00 63 1005.0
20260505184538 84 216 1.7 6.1 0.00 0.00 0.00 63 1004.9
20260505184021 84 227 0.9 5.2 0.00 0.00 0.00 64 1005.1
20260505183521 84 236 0.9 5.2 0.00 0.00 0.00 64 1005.0
20260505183038 84 169 0.9 7.8 0.00 0.00 0.00 65 1005.0
20260505182522 84 170 1.7 7.8 0.00 0.00 0.00 64 1005.0
20260505182021 84 211 0.9 4.3 0.00 0.00 0.00 64 1005.0
20260505181537 84 195 0.9 6.1 0.00 0.00 0.00 64 1005.2
20260505181021 84 188 1.7 7.8 0.00 0.00 0.00 63 1005.2
20260505180522 84 360 1.7 7.8 0.00 0.00 0.00 64 1005.1
20260505175523 84 191 2.6 6.1 0.00 0.00 0.00 64 1005.0
20260505175025 84 165 0.9 5.2 0.00 0.00 0.00 63 1005.0
20260505174556 84 175 1.7 6.1 0.00 0.00 0.00 64 1005.0
20260505174022 83 209 1.7 6.1 0.00 0.00 0.00 64 1005.2
20260505173524 83 134 0.9 6.1 0.00 0.00 0.00 65 1005.0
20260505173044 83 159 2.6 6.1 0.00 0.00 0.00 65 1005.0
20260505172521 82 215 1.7 6.1 0.00 0.00 0.00 65 1005.2
20260505172021 82 263 0.9 6.1 0.00 0.00 0.00 66 1005.2
20260505171537 82 209 1.7 6.1 0.00 0.00 0.00 66 1005.4
20260505171021 81 148 0.9 7.0 0.00 0.00 0.00 66 1005.2
20260505170521 82 208 2.6 7.0 0.00 0.00 0.00 66 1005.5
20260505170037 82 200 1.7 7.8 0.00 0.00 0.00 66 1005.2
20260505165522 82 263 1.7 7.8 0.00 0.00 0.00 66 1005.4
20260505165024 82 145 1.7 4.3 0.00 0.00 0.00 67 1005.4
20260505164535 82 241 0.9 4.3 0.00 0.00 0.00 67 1005.3
20260505164021 81 123 0.9 6.1 0.00 0.00 0.00 67 1005.4
20260505163521 81 215 1.7 6.1 0.00 0.00 0.00 67 1005.3
20260505163039 80 242 1.7 6.1 0.00 0.00 0.00 68 1005.2
20260505162521 80 240 1.7 6.1 0.00 0.00 0.00 69 1005.2
20260505162021 80 304 1.7 6.1 0.00 0.00 0.00 69 1005.1
20260505161539 80 187 1.7 7.8 0.00 0.00 0.00 69 1005.0
20260505161024 80 196 2.6 7.8 0.00 0.00 0.00 68 1005.0
20260505160523 80 318 1.7 7.8 0.00 0.00 0.00 69 1004.9
20260505153036 78 135 2.6 7.8 0.00 0.00 0.00 71 1004.7
20260505152521 78 197 2.6 7.8 0.00 0.00 0.00 72 1004.7
20260505152020 77 114 2.6 8.7 0.00 0.00 0.00 73 1004.9
20260505151535 77 185 2.6 8.7 0.00 0.00 0.00 73 1005.0
20260505151021 77 219 3.5 8.7 0.00 0.00 0.00 73 1005.1
20260505150521 77 154 2.6 7.0 0.00 0.00 0.00 73 1004.9
20260505140521 74 212 1.7 6.1 0.00 0.00 0.00 78 1005.0
20260505125018 72 186 2.6 7.0 0.00 0.00 0.00 81 1004.6
20260505124538 72 196 0.9 6.1 0.00 0.00 0.00 81 1004.5
20260505124018 72 77 1.7 7.8 0.00 0.00 0.00 81 1004.6
20260505123518 72 173 1.7 7.8 0.00 0.00 0.00 81 1004.5
20260505123037 72 155 1.7 7.8 0.00 0.00 0.00 81 1004.3
20260505122518 72 186 2.6 7.8 0.00 0.00 0.00 81 1004.1
20260505122022 72 232 2.6 7.8 0.00 0.00 0.00 81 1004.1
20260505121540 72 166 2.6 6.1 0.00 0.00 0.00 80 1004.2
20260505121021 72 176 1.7 7.8 0.00 0.00 0.00 80 1004.1
20260505120522 72 151 2.6 9.6 0.00 0.00 0.00 80 1004.1
20260505120041 72 234 2.6 9.6 0.00 0.00 0.00 81 1004.1
20260505115521 72 206 1.7 10.4 0.00 0.00 0.00 80 1004.2
20260505115018 72 189 2.6 10.4 0.00 0.00 0.00 81 1004.1
20260505114537 71 155 2.6 7.0 0.00 0.00 0.00 81 1004.0
20260505114021 72 208 1.7 9.6 0.00 0.00 0.00 80 1003.9
20260505113524 72 161 2.6 9.6 0.00 0.00 0.00 80 1003.9
20260505113036 72 156 2.6 8.7 0.00 0.00 0.00 80 1003.9
20260505112518 72 207 1.7 8.7 0.00 0.00 0.00 80 1003.7
20260505112018 72 205 2.6 12.2 0.00 0.00 0.00 80 1003.8
20260505111539 71 230 3.5 12.2 0.00 0.00 0.00 81 1003.9
20260505111018 71 200 2.6 6.1 0.00 0.00 0.00 81 1003.8
20260505110519 71 205 2.6 6.1 0.00 0.00 0.00 82 1004.0
20260505102025 71 195 2.6 7.8 0.00 0.00 0.00 80 1003.9
20260505101535 71 143 1.7 7.0 0.00 0.00 0.00 81 1004.0
20260505101021 71 194 2.6 6.1 0.00 0.00 0.00 80 1003.9
20260505100521 71 163 1.7 6.1 0.00 0.00 0.00 80 1003.9
20260505100035 71 161 2.6 7.8 0.00 0.00 0.00 80 1003.9
20260505095520 71 201 2.6 9.6 0.00 0.00 0.00 81 1003.9
20260505095024 71 240 3.5 9.6 0.00 0.00 0.00 80 1004.1
20260505094537 71 194 2.6 8.7 0.00 0.00 0.00 81 1004.1
20260505094020 71 84 1.7 8.7 0.00 0.00 0.00 81 1004.3
20260505093522 71 188 3.5 9.6 0.00 0.00 0.00 81 1004.2
20260505093040 71 168 2.6 9.6 0.00 0.00 0.00 81 1004.2
20260505092521 71 151 3.5 8.7 0.00 0.00 0.00 81 1004.2
20260505092021 71 163 1.7 8.7 0.00 0.00 0.00 81 1004.4
20260505091548 71 202 0.9 8.7 0.00 0.00 0.00 81 1004.4
20260505091019 71 205 1.7 7.0 0.00 0.00 0.00 81 1004.5
20260505090521 71 178 1.7 7.0 0.00 0.00 0.00 82 1004.4
20260505090034 71 191 2.6 7.0 0.00 0.00 0.00 82 1004.4
20260505085521 71 169 2.6 10.4 0.00 0.00 0.00 81 1004.3
20260505085025 71 132 1.7 10.4 0.00 0.00 0.00 81 1004.3
20260505084535 71 312 1.7 9.6 0.00 0.00 0.00 81 1004.3
20260505084023 71 202 3.5 9.6 0.00 0.00 0.00 81 1004.3
20260505083520 71 172 2.6 7.0 0.00 0.00 0.00 81 1004.4
20260505083039 71 36 1.7 7.0 0.00 0.00 0.00 81 1004.4
20260505082520 71 205 2.6 7.8 0.00 0.00 0.00 80 1004.3
20260505082022 71 198 2.6 10.4 0.00 0.00 0.00 80 1004.3
20260505081539 71 195 3.5 10.4 0.00 0.00 0.00 80 1004.4
20260505081020 71 117 2.6 8.7 0.00 0.00 0.00 80 1004.5
20260505080517 71 164 1.7 8.7 0.00 0.00 0.00 80 1004.5
20260505080037 71 264 2.6 8.7 0.00 0.00 0.00 80 1004.5
20260505075520 71 0 2.6 7.8 0.00 0.00 0.00 79 1004.6
20260505075024 71 184 1.7 6.1 0.00 0.00 0.00 79 1004.6
20260505074537 71 215 1.7 6.1 0.00 0.00 0.00 79 1004.7
20260505074021 71 190 1.7 7.0 0.00 0.00 0.00 79 1004.8
20260505073521 72 188 2.6 7.0 0.00 0.00 0.00 78 1004.9
20260505073034 72 182 1.7 10.4 0.00 0.00 0.00 78 1005.0
20260505072524 72 197 1.7 10.4 0.00 0.00 0.00 78 1005.1
20260505072020 72 243 1.7 10.4 0.00 0.00 0.00 78 1005.1
20260505071551 72 161 2.6 7.0 0.00 0.00 0.00 78 1005.2
20260505071020 72 234 1.7 7.8 0.00 0.00 0.00 77 1005.2
20260505070523 72 170 2.6 7.8 0.00 0.00 0.00 77 1005.2
20260505070042 72 140 2.6 7.8 0.00 0.00 0.00 77 1005.3
20260505065522 72 172 1.7 6.1 0.00 0.00 0.00 77 1005.4
20260505065021 72 200 1.7 8.7 0.00 0.00 0.00 77 1005.5
20260505064536 72 197 1.7 8.7 0.00 0.00 0.00 76 1005.6
20260505064021 72 192 0.9 6.1 0.00 0.00 0.00 76 1005.7
20260505063521 72 178 1.7 6.1 0.00 0.00 0.00 76 1005.7
20260505063048 72 182 2.6 8.7 0.00 0.00 0.00 75 1005.7
20260505062526 72 194 2.6 8.7 0.00 0.00 0.00 75 1005.8
20260505062021 72 203 1.7 5.2 0.00 0.00 0.00 75 1005.7
20260505061604 72 201 0.9 7.0 0.00 0.00 0.00 75 1005.7
20260505061020 72 199 2.6 9.6 0.00 0.00 0.00 74 1005.8
20260505060524 73 172 1.7 10.4 0.00 0.00 0.00 74 1005.7
20260505060040 73 81 2.6 10.4 0.00 0.00 0.00 74 1005.7
20260505055525 73 211 1.7 8.7 0.00 0.00 0.00 73 1005.7
20260505055023 73 141 2.6 8.7 0.00 0.00 0.00 73 1005.8
20260505054540 73 120 2.6 7.8 0.00 0.00 0.00 73 1005.9
20260505054023 73 167 1.7 11.3 0.00 0.00 0.00 73 1005.9
20260505053521 73 109 2.6 11.3 0.00 0.00 0.00 73 1005.9
20260505053041 73 117 1.7 7.8 0.00 0.00 0.00 72 1006.0
20260505052523 73 162 1.7 13.9 0.00 0.00 0.00 72 1006.0
20260505052023 73 186 1.7 13.9 0.00 0.00 0.00 72 1006.1
20260505051601 73 142 2.6 7.0 0.00 0.00 0.00 71 1006.1
20260505051023 73 196 1.7 9.6 0.00 0.00 0.00 71 1006.1
20260505050523 73 157 2.6 9.6 0.00 0.00 0.00 71 1006.1
20260505041540 74 264 2.6 7.0 0.00 0.00 0.00 69 1006.2
20260505041022 74 183 2.6 9.6 0.00 0.00 0.00 69 1006.4
20260505040522 74 237 2.6 9.6 0.00 0.00 0.00 69 1006.4
20260505040036 74 184 1.7 7.8 0.00 0.00 0.00 69 1006.5
20260505035522 74 220 1.7 7.8 0.00 0.00 0.00 69 1006.4
20260505035021 74 123 1.7 6.1 0.00 0.00 0.00 69 1006.3
20260505034538 74 190 1.7 6.1 0.00 0.00 0.00 68 1006.3
20260505034023 74 194 1.7 7.0 0.00 0.00 0.00 68 1006.2
20260505033526 74 169 2.6 8.7 0.00 0.00 0.00 68 1006.3
20260505033038 74 181 1.7 8.7 0.00 0.00 0.00 68 1006.4
20260505032523 75 169 1.7 7.8 0.00 0.00 0.00 68 1006.5
20260505032022 75 175 2.6 12.2 0.00 0.00 0.00 67 1006.4
20260505031540 75 207 2.6 12.2 0.00 0.00 0.00 67 1006.4
20260505031022 75 205 2.6 8.7 0.00 0.00 0.00 67 1006.4
20260505030522 75 207 1.7 8.7 0.00 0.00 0.00 67 1006.4
20260505030038 75 161 2.6 7.0 0.00 0.00 0.00 67 1006.4
20260505025523 75 161 1.7 7.0 0.00 0.00 0.00 67 1006.5
20260505025017 75 189 1.7 11.3 0.00 0.00 0.00 67 1006.5
20260505024539 75 243 1.7 11.3 0.00 0.00 0.00 67 1006.4
20260505024018 75 187 0.9 7.8 0.00 0.00 0.00 66 1006.5
20260505023517 75 134 2.6 12.2 0.00 0.00 0.00 66 1006.4
20260505023036 75 169 1.7 12.2 0.00 0.00 0.00 65 1006.4
20260505022517 75 162 1.7 10.4 0.00 0.00 0.00 66 1006.4
20260505022017 75 215 2.6 10.4 0.00 0.00 0.00 65 1006.4
20260505021539 75 189 2.6 8.7 0.00 0.00 0.00 65 1006.3
20260505021017 75 196 2.6 8.7 0.00 0.00 0.00 65 1006.2
20260505020520 75 170 2.6 8.7 0.00 0.00 0.00 65 1006.1
20260505020038 76 144 1.7 10.4 0.00 0.00 0.00 65 1006.2
20260505015521 76 223 2.6 10.4 0.00 0.00 0.00 65 1006.3
20260505015018 76 205 1.7 10.4 0.00 0.00 0.00 65 1006.3
20260505014538 76 184 2.6 10.4 0.00 0.00 0.00 64 1006.3